EW9605 Weather Reports


Display with metric or nautical units.
time (UTC)temp
F
wind
direction
speed
MPH
gust
MPH
rain 1hr
in
rain 24hr
in
rain mn
in
humidity
%
barometer
mb
20260506035616 75 0.0 0.0 0.00 0.00 0.00 75 1014.6
20260506035154 75 111 0.0 2.0 0.00 0.00 0.00 75 1014.7
20260506034653 75 108 0.0 3.0 0.00 0.00 0.00 75 1014.7
20260506034132 75 0.0 0.0 0.00 0.00 0.00 75 1014.8
20260506033631 75 0.0 0.0 0.00 0.00 0.00 75 1014.9
20260506033129 75 0.0 0.0 0.00 0.00 0.00 75 1014.8
20260506032649 75 0.0 0.0 0.00 0.00 0.00 76 1014.7
20260506032127 75 117 0.0 2.0 0.00 0.00 0.00 77 1014.8
20260506031645 75 110 1.0 2.0 0.00 0.00 0.00 79 1014.7
20260506031124 75 0.0 0.0 0.00 0.00 0.00 82 1014.7
20260506030624 75 0.0 0.0 0.00 0.00 0.00 83 1014.7
20260506030122 74 0.0 0.0 0.00 0.00 0.00 84 1014.5
20260506025741 74 0.0 0.0 0.00 0.00 0.00 85 1014.7
20260506025119 74 0.0 0.0 0.00 0.00 0.00 85 1014.6
20260506024617 75 0.0 0.0 0.00 0.00 0.00 86 1014.6
20260506024117 75 0.0 0.0 0.00 0.00 0.00 85 1014.6
20260506023635 75 0.0 0.0 0.00 0.00 0.00 85 1014.4
20260506023134 75 0.0 0.0 0.00 0.00 0.00 85 1014.4
20260506022633 75 0.0 0.0 0.00 0.00 0.00 84 1014.3
20260506022132 75 0.0 0.0 0.00 0.00 0.00 85 1014.2
20260506021630 75 0 0.0 1.0 0.00 0.00 0.00 83 1014.1
20260506021129 75 0.0 0.0 0.00 0.00 0.00 83 1014.1
20260506020628 75 0.0 0.0 0.00 0.00 0.00 81 1014.0
20260506020127 76 0.0 0.0 0.00 0.00 0.00 81 1014.1
20260506015645 76 0.0 0.0 0.00 0.00 0.00 81 1014.1
20260506015124 76 0.0 0.0 0.00 0.00 0.00 81 1014.1
20260506014622 76 0.0 0.0 0.00 0.00 0.00 81 1013.9
20260506014121 76 0.0 0.0 0.00 0.00 0.00 81 1013.8
20260506013640 76 0.0 0.0 0.00 0.00 0.00 80 1013.8
20260506013119 76 0.0 0.0 0.00 0.00 0.00 81 1013.6
20260506012618 76 0.0 0.0 0.00 0.00 0.00 80 1013.8
20260506012116 76 0.0 0.0 0.00 0.00 0.00 80 1013.6
20260506011635 76 0.0 0.0 0.00 0.00 0.00 80 1013.8
20260506011134 76 0.0 0.0 0.00 0.00 0.00 79 1013.6
20260506010633 77 0.0 0.0 0.00 0.00 0.00 79 1013.6
20260506010131 77 0.0 0.0 0.00 0.00 0.00 79 1013.5
20260506005630 77 0.0 0.0 0.00 0.00 0.00 79 1013.6
20260506005129 77 0.0 0.0 0.00 0.00 0.00 79 1013.3
20260506004708 77 341 1.0 6.0 0.00 0.00 0.00 78 1013.2
20260506004126 77 287 0.0 2.0 0.00 0.00 0.00 78 1013.3
20260506003625 77 323 1.0 4.0 0.00 0.00 0.00 78 1013.3
20260506003144 77 310 2.0 7.0 0.00 0.00 0.00 77 1013.2
20260506002622 78 308 0.0 3.0 0.00 0.00 0.00 76 1013.2
20260506002121 78 305 0.0 1.0 0.00 0.00 0.00 76 1013.1
20260506001619 78 308 1.0 3.0 0.00 0.00 0.00 76 1013.0
20260506001118 78 324 2.0 6.0 0.00 0.00 0.00 76 1013.0
20260506000617 78 0.0 0.0 0.00 0.00 0.00 74 1012.9
20260506000115 79 0.0 0.0 0.00 0.00 0.00 73 1012.7
20260505235634 79 319 1.0 6.0 0.00 0.00 0.00 73 1012.6
20260505235133 79 296 1.0 4.0 0.00 0.00 0.00 72 1012.6
20260505234632 80 296 4.0 7.0 0.00 0.00 0.00 72 1012.5
20260505234130 80 0.0 0.0 0.00 0.00 0.00 71 1012.5
20260505233629 81 308 3.0 6.0 0.00 0.00 0.00 69 1012.6
20260505233148 81 298 3.0 11.0 0.00 0.00 0.00 68 1012.6
20260505232626 82 296 0.0 3.0 0.00 0.00 0.00 66 1012.7
20260505232145 83 0.0 0.0 0.00 0.00 0.00 65 1012.6
20260505231623 84 305 2.0 9.0 0.00 0.00 0.00 63 1012.5
20260505231122 84 263 6.0 9.0 0.00 0.00 0.00 63 1012.6
20260505230641 85 313 4.0 9.0 0.00 0.00 0.00 62 1012.4
20260505230140 85 0.0 0.0 0.00 0.00 0.00 63 1012.5
20260505225618 85 241 1.0 6.0 0.00 0.00 0.00 64 1012.5
20260505225117 84 322 2.0 7.0 0.00 0.00 0.00 65 1012.6
20260505224616 84 252 5.0 7.0 0.00 0.00 0.00 65 1012.6
20260505224134 84 257 3.0 8.0 0.00 0.00 0.00 63 1012.4
20260505223633 84 278 3.0 7.0 0.00 0.00 0.00 63 1012.4
20260505223132 84 253 4.0 7.0 0.00 0.00 0.00 64 1012.4
20260505222631 84 271 1.0 6.0 0.00 0.00 0.00 63 1012.3
20260505222130 84 247 7.0 11.0 0.00 0.00 0.00 63 1012.2
20260505221628 84 245 5.0 9.0 0.00 0.00 0.00 63 1012.4
20260505221127 84 262 5.0 8.0 0.00 0.00 0.00 64 1012.5
20260505220626 84 259 1.0 9.0 0.00 0.00 0.00 64 1012.6
20260505220125 84 272 3.0 9.0 0.00 0.00 0.00 64 1012.6
20260505215624 84 298 4.0 7.0 0.00 0.00 0.00 64 1012.3
20260505215142 84 254 4.0 9.0 0.00 0.00 0.00 65 1012.5
20260505214621 84 279 4.0 8.0 0.00 0.00 0.00 64 1012.3
20260505214120 83 258 2.0 8.0 0.00 0.00 0.00 65 1012.2
20260505213619 84 257 5.0 9.0 0.00 0.00 0.00 64 1012.3
20260505213118 84 231 5.0 7.0 0.00 0.00 0.00 63 1012.4
20260505212616 85 258 8.0 10.0 0.00 0.00 0.00 64 1012.1
20260505212135 85 276 5.0 9.0 0.00 0.00 0.00 63 1012.1
20260505211635 85 257 4.0 8.0 0.00 0.00 0.00 63 1012.2
20260505211213 85 238 4.0 8.0 0.00 0.00 0.00 63 1012.4
20260505210632 85 232 1.0 4.0 0.00 0.00 0.00 63 1012.2
20260505210130 85 261 5.0 14.0 0.00 0.00 0.00 63 1012.3
20260505205629 85 269 4.0 7.0 0.00 0.00 0.00 64 1012.2
20260505205128 84 275 5.0 8.0 0.00 0.00 0.00 65 1012.2
20260505204646 84 234 2.0 6.0 0.00 0.00 0.00 64 1012.4
20260505204125 85 252 6.0 8.0 0.00 0.00 0.00 62 1012.2
20260505203624 85 309 4.0 8.0 0.00 0.00 0.00 62 1012.3
20260505203123 86 287 4.0 6.0 0.00 0.00 0.00 64 1012.3
20260505202621 86 274 6.0 9.0 0.00 0.00 0.00 61 1012.1
20260505202120 87 241 3.0 7.0 0.00 0.00 0.00 60 1012.5
20260505201619 87 277 3.0 7.0 0.00 0.00 0.00 59 1012.4
20260505201138 87 254 2.0 4.0 0.00 0.00 0.00 56 1012.4
20260505200656 87 214 2.0 4.0 0.00 0.00 0.00 49 1012.4
20260505200135 86 0.0 0.0 0.00 0.00 0.00 52 1012.5
20260505195634 85 0.0 0.0 0.00 0.00 0.00 50 1012.4
20260505195153 85 0.0 0.0 0.00 0.00 0.00 52 1012.6
20260505194631 85 162 1.0 2.0 0.00 0.00 0.00 51 1012.6
20260505194129 86 0.0 0.0 0.00 0.00 0.00 51 1012.6
20260505193628 86 49 4.0 7.0 0.00 0.00 0.00 52 1012.5
20260505193127 86 95 3.0 4.0 0.00 0.00 0.00 53 1012.6
20260505192626 86 0.0 0.0 0.00 0.00 0.00 52 1012.5
20260505192124 86 70 4.0 6.0 0.00 0.00 0.00 53 1012.5
20260505191623 86 0.0 0.0 0.00 0.00 0.00 53 1012.6
20260505191142 85 0.0 0.0 0.00 0.00 0.00 53 1012.6
20260505190620 85 126 0.0 1.0 0.00 0.00 0.00 52 1012.9
20260505190119 86 0.0 0.0 0.00 0.00 0.00 51 1012.7
20260505185617 86 110 2.0 2.0 0.00 0.00 0.00 53 1012.8
20260505185116 86 78 4.0 6.0 0.00 0.00 0.00 52 1012.9
20260505184635 86 138 1.0 1.0 0.00 0.00 0.00 56 1012.9
20260505184134 86 0.0 0.0 0.00 0.00 0.00 52 1012.9
20260505183633 86 92 4.0 10.0 0.00 0.00 0.00 53 1013.0
20260505183131 85 0.0 0.0 0.00 0.00 0.00 52 1013.0
20260505182630 85 0.0 0.0 0.00 0.00 0.00 54 1013.2
20260505182129 85 0.0 0.0 0.00 0.00 0.00 56 1013.2
20260505181627 83 0.0 0.0 0.00 0.00 0.00 59 1013.5
20260505181126 83 0.0 0.0 0.00 0.00 0.00 59 1013.5
20260505180624 84 0.0 0.0 0.00 0.00 0.00 57 1013.4
20260505180123 85 75 2.0 2.0 0.00 0.00 0.00 57 1013.7
20260505175622 85 41 1.0 6.0 0.00 0.00 0.00 56 1013.6
20260505175120 85 0.0 0.0 0.00 0.00 0.00 57 1013.6
20260505174619 85 0.0 0.0 0.00 0.00 0.00 56 1013.8
20260505174138 86 99 1.0 3.0 0.00 0.00 0.00 56 1013.8
20260505173616 85 0.0 0.0 0.00 0.00 0.00 59 1013.9
20260505173135 83 85 2.0 4.0 0.00 0.00 0.00 59 1014.0
20260505172634 83 86 0.0 2.0 0.00 0.00 0.00 61 1013.9
20260505172132 84 112 3.0 3.0 0.00 0.00 0.00 59 1014.0
20260505171631 84 0.0 0.0 0.00 0.00 0.00 61 1013.9
20260505171150 84 0.0 0.0 0.00 0.00 0.00 60 1014.1
20260505170648 84 0.0 0.0 0.00 0.00 0.00 59 1014.2
20260505170128 86 0.0 0.0 0.00 0.00 0.00 59 1014.1
20260505165646 85 0.0 0.0 0.00 0.00 0.00 62 1014.1
20260505165145 85 101 0.0 1.0 0.00 0.00 0.00 60 1014.1
20260505164623 84 0.0 0.0 0.00 0.00 0.00 61 1014.3
20260505164122 84 71 2.0 4.0 0.00 0.00 0.00 64 1014.4
20260505163700 83 185 3.0 6.0 0.00 0.00 0.00 65 1014.2
20260505163119 82 90 1.0 7.0 0.00 0.00 0.00 65 1014.1
20260505162617 82 0.0 0.0 0.00 0.00 0.00 64 1014.4
20260505162137 82 159 2.0 6.0 0.00 0.00 0.00 65 1014.2
20260505161635 83 0.0 0.0 0.00 0.00 0.00 64 1014.3
20260505161134 83 131 0.0 1.0 0.00 0.00 0.00 67 1014.3
20260505160632 82 160 3.0 10.0 0.00 0.00 0.00 66 1014.5
20260505160151 82 103 3.0 6.0 0.00 0.00 0.00 66 1014.3
20260505153123 82 0.0 0.0 0.00 0.00 0.00 67 1014.6
20260505152621 82 0.0 0.0 0.00 0.00 0.00 68 1014.6
20260505152120 81 128 2.0 3.0 0.00 0.00 0.00 68 1014.8
20260505151619 80 0.0 0.0 0.00 0.00 0.00 70 1014.6
20260505151117 80 0.0 0.0 0.00 0.00 0.00 69 1014.6
20260505150616 80 0.0 0.0 0.00 0.00 0.00 71 1014.8
20260505150135 80 93 4.0 8.0 0.00 0.00 0.00 69 1014.6
20260505140621 78 0.0 0.0 0.00 0.00 0.00 74 1014.1
20260505140119 78 106 3.0 4.0 0.00 0.00 0.00 74 1014.0
20260505130124 75 135 2.0 4.0 0.00 0.00 0.00 79 1013.9
20260505124620 74 0.0 0.0 0.00 0.00 0.00 80 1013.9
20260505124119 74 0.0 0.0 0.00 0.00 0.00 80 1013.9
20260505123618 73 122 4.0 7.0 0.00 0.00 0.00 81 1014.0
20260505123116 73 0.0 0.0 0.00 0.00 0.00 81 1014.0
20260505122715 73 125 1.0 4.0 0.00 0.00 0.00 82 1014.0
20260505122154 73 76 1.0 4.0 0.00 0.00 0.00 82 1014.0
20260505121652 72 130 0.0 4.0 0.00 0.00 0.00 82 1014.1
20260505121131 72 0.0 0.0 0.00 0.00 0.00 82 1013.9
20260505120630 72 0.0 0.0 0.00 0.00 0.00 83 1013.8
20260505120128 71 0.0 0.0 0.00 0.00 0.00 83 1014.0
20260505115647 71 0.0 0.0 0.00 0.00 0.00 83 1013.9
20260505115126 71 0.0 0.0 0.00 0.00 0.00 85 1013.8
20260505114624 71 0.0 0.0 0.00 0.00 0.00 85 1013.6
20260505114123 70 0.0 0.0 0.00 0.00 0.00 86 1013.5
20260505113622 69 0.0 0.0 0.00 0.00 0.00 88 1013.4
20260505113120 69 0.0 0.0 0.00 0.00 0.00 89 1013.3
20260505112619 68 0.0 0.0 0.00 0.00 0.00 89 1013.1
20260505112158 68 0.0 0.0 0.00 0.00 0.00 90 1013.2
20260505111616 68 0.0 0.0 0.00 0.00 0.00 90 1013.2
20260505111135 67 98 0.0 1.0 0.00 0.00 0.00 90 1013.2
20260505110634 67 0.0 0.0 0.00 0.00 0.00 90 1013.0
20260505110133 67 0.0 0.0 0.00 0.00 0.00 90 1012.9
20260505102121 67 0.0 0.0 0.00 0.00 0.00 91 1012.5
20260505101620 67 0.0 0.0 0.00 0.00 0.00 91 1012.7
20260505101119 67 0.0 0.0 0.00 0.00 0.00 91 1012.7
20260505100617 67 0.0 0.0 0.00 0.00 0.00 91 1012.8
20260505100116 67 0.0 0.0 0.00 0.00 0.00 90 1012.7
20260505095635 67 0.0 0.0 0.00 0.00 0.00 91 1012.6
20260505095133 67 0.0 0.0 0.00 0.00 0.00 90 1012.6
20260505094632 67 0.0 0.0 0.00 0.00 0.00 90 1012.4
20260505094131 67 0.0 0.0 0.00 0.00 0.00 90 1012.7
20260505093709 67 0.0 0.0 0.00 0.00 0.00 90 1012.4
20260505093128 67 0.0 0.0 0.00 0.00 0.00 90 1012.3
20260505092626 67 0.0 0.0 0.00 0.00 0.00 90 1012.4
20260505092125 67 0.0 0.0 0.00 0.00 0.00 90 1012.3
20260505091624 67 0.0 0.0 0.00 0.00 0.00 90 1012.6
20260505091122 67 0.0 0.0 0.00 0.00 0.00 90 1012.2
20260505090621 67 0.0 0.0 0.00 0.00 0.00 90 1012.2
20260505090119 67 0.0 0.0 0.00 0.00 0.00 90 1012.2
20260505085638 67 0.0 0.0 0.00 0.00 0.00 90 1012.2
20260505085117 67 0.0 0.0 0.00 0.00 0.00 90 1012.3
20260505084635 67 0.0 0.0 0.00 0.00 0.00 90 1012.3
20260505084134 67 0.0 0.0 0.00 0.00 0.00 89 1012.4
20260505083633 68 0.0 0.0 0.00 0.00 0.00 89 1012.4
20260505083131 68 0.0 0.0 0.00 0.00 0.00 89 1012.3
20260505082630 68 0.0 0.0 0.00 0.00 0.00 89 1012.2
20260505082129 68 0.0 0.0 0.00 0.00 0.00 88 1012.2
20260505081627 68 0.0 0.0 0.00 0.00 0.00 89 1012.2
20260505081126 68 0.0 0.0 0.00 0.00 0.00 89 1012.0
20260505080621 68 0.0 0.0 0.00 0.00 0.00 89 1012.1
20260505080119 68 0.0 0.0 0.00 0.00 0.00 89 1012.2
20260505075618 68 0.0 0.0 0.00 0.00 0.00 88 1012.4
20260505075117 68 0.0 0.0 0.00 0.00 0.00 88 1012.7
20260505074615 68 0.0 0.0 0.00 0.00 0.00 88 1012.5
20260505074155 68 0.0 0.0 0.00 0.00 0.00 88 1012.7
20260505073713 68 0.0 0.0 0.00 0.00 0.00 88 1012.5
20260505073131 68 0.0 0.0 0.00 0.00 0.00 88 1012.5
20260505072630 68 0.0 0.0 0.00 0.00 0.00 88 1012.7
20260505072129 68 0.0 0.0 0.00 0.00 0.00 88 1012.5
20260505071627 68 0.0 0.0 0.00 0.00 0.00 88 1012.5
20260505071126 68 0.0 0.0 0.00 0.00 0.00 87 1012.3
20260505070625 68 0.0 0.0 0.00 0.00 0.00 87 1012.4
20260505070144 68 0.0 0.0 0.00 0.00 0.00 87 1012.4
20260505065643 68 0.0 0.0 0.00 0.00 0.00 87 1012.6
20260505065121 69 0.0 0.0 0.00 0.00 0.00 87 1012.6
20260505064619 69 0.0 0.0 0.00 0.00 0.00 87 1012.7
20260505064130 69 0.0 0.0 0.00 0.00 0.00 86 1012.8
20260505063616 69 0.0 0.0 0.00 0.00 0.00 86 1012.7
20260505063135 69 0.0 0.0 0.00 0.00 0.00 86 1012.9
20260505062634 69 0.0 0.0 0.00 0.00 0.00 86 1013.1
20260505062153 69 0.0 0.0 0.00 0.00 0.00 85 1013.2
20260505061631 69 0.0 0.0 0.00 0.00 0.00 86 1013.4
20260505061130 69 0.0 0.0 0.00 0.00 0.00 85 1013.4
20260505060628 69 0.0 0.0 0.00 0.00 0.00 85 1013.4
20260505060127 69 0.0 0.0 0.00 0.00 0.00 85 1013.5
20260505055626 69 110 1.0 3.0 0.00 0.00 0.00 85 1013.4
20260505055145 69 0.0 0.0 0.00 0.00 0.00 85 1013.2
20260505054623 69 0.0 0.0 0.00 0.00 0.00 85 1013.4
20260505054143 69 88 0.0 1.0 0.00 0.00 0.00 85 1013.5
20260505053640 69 0.0 0.0 0.00 0.00 0.00 85 1013.5
20260505053119 70 0.0 0.0 0.00 0.00 0.00 85 1013.7
20260505052617 70 0.0 0.0 0.00 0.00 0.00 85 1013.6
20260505052137 69 0.0 0.0 0.00 0.00 0.00 85 1013.7
20260505051635 70 0.0 0.0 0.00 0.00 0.00 85 1013.6
20260505051134 70 0.0 0.0 0.00 0.00 0.00 85 1013.5
20260505050632 70 0.0 0.0 0.00 0.00 0.00 84 1013.6
20260505050131 70 0.0 0.0 0.00 0.00 0.00 84 1013.7
20260505041639 71 0.0 0.0 0.00 0.00 0.00 82 1013.9
20260505041117 71 0.0 0.0 0.00 0.00 0.00 81 1014.0
20260505040616 71 0.0 0.0 0.00 0.00 0.00 81 1013.8
20260505040134 71 110 0.0 1.0 0.00 0.00 0.00 80 1014.0